Weather History for Rhinelander, WI

Change the Weather History Date:

Sunday, May 26, 2013

  Actual Average Record
Temperature  
Mean Temperature 50 °F 56 °F  
Max Temperature 66 °F 68 °F 90 °F (1911)
Min Temperature 34 °F 44 °F 27 °F (1925)
Degree Days  
Heating Degree Days 15 10  
Month to date heating degree days 377 343  
Since 1 July heating degree days 8988 8843  
Cooling Degree Days 0 1  
Month to date cooling degree days 9 4  
Year to date cooling degree days 9 5  
Moisture  
Dew Point 32 °F    
Average Humidity 59    
Maximum Humidity 92    
Minimum Humidity 25    
Precipitation  
Precipitation 0.00 in 0.11 in 1.90 in (1991)
Month to date precipitation 2.21 2.88  
Year to date precipitation 11.64 9.07  
Snow  
Snow 0.00 in - 0.00 in ()
Month to date snowfall 0.2  
Since 1 July snowfall 83.8  
Snow Depth 0.00 in    
Sea Level Pressure  
Sea Level Pressure 30.30 in    
Wind  
Wind Speed 7 mph (SE)    
Max Wind Speed 17 mph    
Max Gust Speed 31 mph    
Visibility 10 miles    
Events      
T = Trace of Precipitation, MM = Missing Value Source: NWS Daily Summary

Daily Weather History Graph

Daily Weather History Graph

Search for Another Location

Airport:

Trip Planner

Search our weather history database for the weather conditions in past years. The results will help you decide how hot, cold, wet, or windy it might be!

Date:

Astronomy

May. 26, 2013 Rise Set
Actual Time 5:16 AM CDT 8:34 PM CDT
Civil Twilight 4:39 AM CDT 9:11 PM CDT
Nautical Twilight 3:52 AM CDT 9:58 PM CDT
Astronomical Twilight 2:53 AM CDT 10:58 PM CDT
Moon 10:20 PM CDT (5/26) 6:46 AM CDT (5/26)
Length of Visible Light 16h 31m
Length of Day
15h 18m
Waning Gibbous, 96% of the Moon is Illuminated
May 26
Waning Gibbous
May 31
Last Quarter
Jun 8
New
Jun 16
First Quarter
Jun 23
Full

Hourly Weather History & Observations

Time (CDT) Temp. Dew Point Humidity Pressure Visibility Wind Dir Wind Speed Gust Speed Precip Events Conditions
12:53 AM 46.9 °F 34.0 °F 61% 30.35 in 10.0 mi Calm Calm - N/A   Clear
1:53 AM 41.0 °F 35.1 °F 79% 30.35 in 10.0 mi Calm Calm - N/A   Clear
2:53 AM 39.0 °F 34.0 °F 82% 30.34 in 10.0 mi Calm Calm - N/A   Clear
3:53 AM 36.0 °F 33.1 °F 89% 30.33 in 10.0 mi Calm Calm - N/A   Clear
4:53 AM 37.9 °F 34.0 °F 86% 30.34 in 10.0 mi Calm Calm - N/A   Clear
5:53 AM 36.0 °F 34.0 °F 93% 30.36 in 10.0 mi Calm Calm - N/A   Clear
6:53 AM 45.0 °F 37.0 °F 74% 30.36 in 10.0 mi Calm Calm - N/A   Clear
7:53 AM 51.1 °F 34.0 °F 52% 30.36 in 10.0 mi ESE 8.1 mph - N/A   Clear
8:53 AM 55.0 °F 32.0 °F 42% 30.35 in 10.0 mi SE 11.5 mph - N/A   Clear
9:53 AM 57.0 °F 30.9 °F 37% 30.35 in 10.0 mi SE 12.7 mph - N/A   Clear
10:53 AM 57.9 °F 30.9 °F 36% 30.34 in 10.0 mi SE 10.4 mph - N/A   Clear
11:53 AM 60.1 °F 28.0 °F 30% 30.33 in 10.0 mi ESE 15.0 mph 19.6 mph N/A   Clear
12:53 PM 62.1 °F 28.0 °F 28% 30.32 in 10.0 mi ESE 12.7 mph - N/A   Clear
1:53 PM 62.1 °F 28.0 °F 28% 30.30 in 10.0 mi ESE 11.5 mph 19.6 mph N/A   Clear
2:53 PM 64.0 °F 28.0 °F 26% 30.28 in 10.0 mi ESE 6.9 mph - N/A   Clear
3:53 PM 64.9 °F 28.0 °F 25% 30.26 in 10.0 mi SE 9.2 mph 20.7 mph N/A   Clear
4:53 PM 64.0 °F 28.0 °F 26% 30.24 in 10.0 mi South 8.1 mph 18.4 mph N/A   Clear
5:53 PM 63.0 °F 27.0 °F 26% 30.23 in 10.0 mi ESE 13.8 mph - N/A   Clear
6:53 PM 62.1 °F 26.1 °F 25% 30.22 in 10.0 mi ESE 9.2 mph - N/A   Clear
7:53 PM 59.0 °F 30.0 °F 33% 30.22 in 10.0 mi SE 8.1 mph - N/A   Clear
8:53 PM 55.0 °F 33.1 °F 43% 30.25 in 10.0 mi SE 5.8 mph - N/A   Clear
9:53 PM 51.1 °F 35.1 °F 54% 30.24 in 10.0 mi SE 5.8 mph - N/A   Clear
10:53 PM 48.9 °F 37.0 °F 64% 30.22 in 10.0 mi ESE 5.8 mph - N/A   Clear
11:53 PM 46.9 °F 37.0 °F 68% 30.24 in 10.0 mi Calm Calm - N/A   Clear